Terminal Aerodrome Forecast
Issued by NWS Greer, SC

Home | Current Version | Previous Version | Text Only | Print | Product List | Glossary On
Versions: 1 2 3 4 5 6 7 8 9 10 11 12 13 14 15 16 17 18 19 20 21 22 23 24 25 26 27 28 29 30 31 32 33 34 35 36 37 38 39 40 41 42 43 44 45 46 47 48 49 50
000
FTUS42 KGSP 290532
TAFCLT
TAF
KCLT 290532Z 2906/3006 32003KT P6SM FEW250
      TEMPO 2909/2912 5SM BR FEW250
     FM291700 24006KT P6SM SCT045 BKN120 PROB30 2920/3002 4SM -TSRA
      OVC025CB=

USA.gov is the U.S. government's official web portal to all federal, state and local government web resources and services.